Year,Month,Day,Hour,Minute,Value (Times are PST for temperature in C)
2006,06,30,00,00,15.30
2006,06,30,00,01,15.30
2006,06,30,00,02,15.30
2006,06,30,00,03,15.20
2006,06,30,00,04,15.20
2006,06,30,00,05,15.20
2006,06,30,00,06,15.20
2006,06,30,00,07,15.10
2006,06,30,00,08,15.10
2006,06,30,00,09,15.00
2006,06,30,00,10,15.00
2006,06,30,00,11,15.00
2006,06,30,00,12,15.00
2006,06,30,00,13,15.00
2006,06,30,00,14,15.00
2006,06,30,00,15,15.00
2006,06,30,00,16,15.00
2006,06,30,00,17,15.00
2006,06,30,00,18,14.90
2006,06,30,00,19,14.80
2006,06,30,00,20,14.80
2006,06,30,00,21,14.80
2006,06,30,00,22,14.80
2006,06,30,00,23,14.80
2006,06,30,00,24,14.70
2006,06,30,00,25,14.70
2006,06,30,00,26,14.70
2006,06,30,00,27,14.70
2006,06,30,00,28,14.70
2006,06,30,00,29,14.60
2006,06,30,00,30,14.60
2006,06,30,00,31,14.60
2006,06,30,00,32,14.50
2006,06,30,00,33,14.50
2006,06,30,00,34,14.50
2006,06,30,00,35,14.40
2006,06,30,00,36,14.40
2006,06,30,00,37,14.40
2006,06,30,00,38,14.40
2006,06,30,00,39,14.40
2006,06,30,00,40,14.40
2006,06,30,00,41,14.40
2006,06,30,00,42,14.40
2006,06,30,00,43,14.40
2006,06,30,00,44,14.40
2006,06,30,00,45,14.40
2006,06,30,00,46,14.40
2006,06,30,00,47,14.40
2006,06,30,00,48,14.30
2006,06,30,00,49,14.30
2006,06,30,00,50,14.30
2006,06,30,00,51,14.30
2006,06,30,00,52,14.30
2006,06,30,00,53,14.30
2006,06,30,00,54,14.30
2006,06,30,00,55,14.30
2006,06,30,00,56,14.30
2006,06,30,00,57,14.20
2006,06,30,00,58,14.20
2006,06,30,00,59,14.20
2006,06,30,01,00,14.20
2006,06,30,01,01,14.30
2006,06,30,01,02,14.20
2006,06,30,01,03,14.30
2006,06,30,01,04,14.20
2006,06,30,01,05,14.20
2006,06,30,01,06,14.20
2006,06,30,01,07,14.20
2006,06,30,01,08,14.20
2006,06,30,01,09,14.20
2006,06,30,01,10,14.20
2006,06,30,01,11,14.20
2006,06,30,01,12,14.20
2006,06,30,01,13,14.20
2006,06,30,01,14,14.20
2006,06,30,01,15,14.10
2006,06,30,01,16,14.10
2006,06,30,01,17,14.10
2006,06,30,01,18,14.10
2006,06,30,01,19,14.00
2006,06,30,01,20,14.00
2006,06,30,01,21,14.00
2006,06,30,01,22,13.90
2006,06,30,01,23,13.90
2006,06,30,01,24,13.90
2006,06,30,01,25,13.90
2006,06,30,01,26,13.80
2006,06,30,01,27,13.80
2006,06,30,01,28,13.80
2006,06,30,01,29,13.80
2006,06,30,01,30,13.70
2006,06,30,01,31,13.70
2006,06,30,01,32,13.70
2006,06,30,01,33,13.60
2006,06,30,01,34,13.60
2006,06,30,01,35,13.60
2006,06,30,01,36,13.60
2006,06,30,01,37,13.60
2006,06,30,01,38,13.50
2006,06,30,01,39,13.50
2006,06,30,01,40,13.40
2006,06,30,01,41,13.40
2006,06,30,01,42,13.40
2006,06,30,01,43,13.40
2006,06,30,01,44,13.30
2006,06,30,01,45,13.30
2006,06,30,01,46,13.30
2006,06,30,01,47,13.30
2006,06,30,01,48,13.30
2006,06,30,01,49,13.30
2006,06,30,01,50,13.30
2006,06,30,01,51,13.30
2006,06,30,01,52,13.30
2006,06,30,01,53,13.30
2006,06,30,01,54,13.40
2006,06,30,01,55,13.40
2006,06,30,01,56,13.30
2006,06,30,01,57,13.30
2006,06,30,01,58,13.30
2006,06,30,01,59,13.30
2006,06,30,02,00,13.30
2006,06,30,02,01,13.30
2006,06,30,02,02,13.30
2006,06,30,02,03,13.30
2006,06,30,02,04,13.30
2006,06,30,02,05,13.30
2006,06,30,02,06,13.30
2006,06,30,02,07,13.30
2006,06,30,02,08,13.30
2006,06,30,02,09,13.30
2006,06,30,02,10,13.20
2006,06,30,02,11,13.20
2006,06,30,02,12,13.20
2006,06,30,02,13,13.20
2006,06,30,02,14,13.20
2006,06,30,02,15,13.20
2006,06,30,02,16,13.20
2006,06,30,02,17,13.20
2006,06,30,02,18,13.20
2006,06,30,02,19,13.20
2006,06,30,02,20,13.20
2006,06,30,02,21,13.20
2006,06,30,02,22,13.20
2006,06,30,02,23,13.20
2006,06,30,02,24,13.20
2006,06,30,02,25,13.20
2006,06,30,02,26,13.10
2006,06,30,02,27,13.00
2006,06,30,02,28,13.00
2006,06,30,02,29,12.90
2006,06,30,02,30,12.90
2006,06,30,02,31,12.90
2006,06,30,02,32,12.90
2006,06,30,02,33,12.90
2006,06,30,02,34,12.90
2006,06,30,02,35,12.90
2006,06,30,02,36,12.80
2006,06,30,02,37,12.80
2006,06,30,02,38,12.80
2006,06,30,02,39,12.80
2006,06,30,02,40,12.80
2006,06,30,02,41,12.80
2006,06,30,02,42,12.80
2006,06,30,02,43,12.80
2006,06,30,02,44,12.80
2006,06,30,02,45,12.80
2006,06,30,02,46,12.70
2006,06,30,02,47,12.70
2006,06,30,02,48,12.70
2006,06,30,02,49,12.70
2006,06,30,02,50,12.70
2006,06,30,02,51,12.60
2006,06,30,02,52,12.60
2006,06,30,02,53,12.60
2006,06,30,02,54,12.60
2006,06,30,02,55,12.60
2006,06,30,02,56,12.60
2006,06,30,02,57,12.50
2006,06,30,02,58,12.50
2006,06,30,02,59,12.50
2006,06,30,03,00,12.50
2006,06,30,03,01,12.50
2006,06,30,03,02,12.40
2006,06,30,03,03,12.40
2006,06,30,03,04,12.40
2006,06,30,03,05,12.40
2006,06,30,03,06,12.40
2006,06,30,03,07,12.40
2006,06,30,03,08,12.40
2006,06,30,03,09,12.30
2006,06,30,03,10,12.30
2006,06,30,03,11,12.30
2006,06,30,03,12,12.30
2006,06,30,03,13,12.30
2006,06,30,03,14,12.20
2006,06,30,03,15,12.20
2006,06,30,03,16,12.20
2006,06,30,03,17,12.20
2006,06,30,03,18,12.10
2006,06,30,03,19,12.10
2006,06,30,03,20,12.10
2006,06,30,03,21,12.00
2006,06,30,03,22,12.00
2006,06,30,03,23,12.00
2006,06,30,03,24,12.00
2006,06,30,03,25,12.00
2006,06,30,03,26,11.90
2006,06,30,03,27,11.90
2006,06,30,03,28,11.90
2006,06,30,03,29,11.90
2006,06,30,03,30,11.90
2006,06,30,03,31,11.90
2006,06,30,03,32,11.80
2006,06,30,03,33,11.80
2006,06,30,03,34,11.80
2006,06,30,03,35,11.80
2006,06,30,03,36,11.70
2006,06,30,03,37,11.70
2006,06,30,03,38,11.70
2006,06,30,03,39,11.70
2006,06,30,03,40,11.60
2006,06,30,03,41,11.60
2006,06,30,03,42,11.60
2006,06,30,03,43,11.60
2006,06,30,03,44,11.60
2006,06,30,03,45,11.70
2006,06,30,03,46,11.60
2006,06,30,03,47,11.60
2006,06,30,03,48,11.60
2006,06,30,03,49,11.60
2006,06,30,03,50,11.60
2006,06,30,03,51,11.60
2006,06,30,03,52,11.60
2006,06,30,03,53,11.60
2006,06,30,03,54,11.60
2006,06,30,03,55,11.60
2006,06,30,03,56,11.60
2006,06,30,03,57,11.70
2006,06,30,03,58,11.70
2006,06,30,03,59,11.70
2006,06,30,04,00,11.70
2006,06,30,04,01,11.70
2006,06,30,04,02,11.60
2006,06,30,04,03,11.60
2006,06,30,04,04,11.60
2006,06,30,04,05,11.60
2006,06,30,04,06,11.50
2006,06,30,04,07,11.50
2006,06,30,04,08,11.50
2006,06,30,04,09,11.50
2006,06,30,04,10,11.50
2006,06,30,04,11,11.50
2006,06,30,04,12,11.50
2006,06,30,04,13,11.40
2006,06,30,04,14,11.40
2006,06,30,04,15,11.40
2006,06,30,04,16,11.40
2006,06,30,04,17,11.40
2006,06,30,04,18,11.30
2006,06,30,04,19,11.30
2006,06,30,04,20,11.30
2006,06,30,04,21,11.30
2006,06,30,04,22,11.20
2006,06,30,04,23,11.20
2006,06,30,04,24,11.20
2006,06,30,04,25,11.20
2006,06,30,04,26,11.20
2006,06,30,04,27,11.20
2006,06,30,04,28,11.20
2006,06,30,04,29,11.20
2006,06,30,04,30,11.20
2006,06,30,04,31,11.20
2006,06,30,04,32,11.20
2006,06,30,04,33,11.20
2006,06,30,04,34,11.30
2006,06,30,04,35,11.30
2006,06,30,04,36,11.30
2006,06,30,04,37,11.30
2006,06,30,04,38,11.30
2006,06,30,04,39,11.30
2006,06,30,04,40,11.20
2006,06,30,04,41,11.20
2006,06,30,04,42,11.20
2006,06,30,04,43,11.20
2006,06,30,04,44,11.20
2006,06,30,04,45,11.20
2006,06,30,04,46,11.20
2006,06,30,04,47,11.20
2006,06,30,04,48,11.20
2006,06,30,04,49,11.20
2006,06,30,04,50,11.20
2006,06,30,04,51,11.20
2006,06,30,04,52,11.20
2006,06,30,04,53,11.20
2006,06,30,04,54,11.10
2006,06,30,04,55,11.10
2006,06,30,04,56,11.10
2006,06,30,04,57,11.10
2006,06,30,04,58,11.10
2006,06,30,04,59,11.00
2006,06,30,05,00,11.00
2006,06,30,05,01,11.00
2006,06,30,05,02,11.00
2006,06,30,05,03,11.00
2006,06,30,05,04,11.00
2006,06,30,05,05,11.00
2006,06,30,05,06,11.00
2006,06,30,05,07,11.00
2006,06,30,05,08,11.00
2006,06,30,05,09,11.00
2006,06,30,05,10,11.10
2006,06,30,05,11,11.10
2006,06,30,05,12,11.10
2006,06,30,05,13,11.10
2006,06,30,05,14,11.10
2006,06,30,05,15,11.10
2006,06,30,05,16,11.10
2006,06,30,05,17,11.10
2006,06,30,05,18,11.00
2006,06,30,05,19,11.00
2006,06,30,05,20,11.00
2006,06,30,05,21,11.00
2006,06,30,05,22,11.00
2006,06,30,05,23,11.00
2006,06,30,05,24,11.00
2006,06,30,05,25,11.00
2006,06,30,05,26,11.00
2006,06,30,05,27,10.90
2006,06,30,05,28,10.90
2006,06,30,05,29,10.90
2006,06,30,05,30,10.90
2006,06,30,05,31,10.90
2006,06,30,05,32,10.80
2006,06,30,05,33,10.80
2006,06,30,05,34,10.80
2006,06,30,05,35,10.80
2006,06,30,05,36,10.80
2006,06,30,05,37,10.80
2006,06,30,05,38,10.80
2006,06,30,05,39,10.80
2006,06,30,05,40,10.80
2006,06,30,05,41,10.80
2006,06,30,05,42,10.80
2006,06,30,05,43,10.80
2006,06,30,05,44,10.80
2006,06,30,05,45,10.80
2006,06,30,05,46,10.80
2006,06,30,05,47,10.80
2006,06,30,05,48,10.80
2006,06,30,05,49,10.80
2006,06,30,05,50,10.90
2006,06,30,05,51,10.90
2006,06,30,05,52,10.90
2006,06,30,05,53,11.00
2006,06,30,05,54,11.00
2006,06,30,05,55,11.10
2006,06,30,05,56,11.10
2006,06,30,05,57,11.10
2006,06,30,05,58,11.10
2006,06,30,05,59,11.10
2006,06,30,06,00,11.20
2006,06,30,06,01,11.20
2006,06,30,06,02,11.20
2006,06,30,06,03,11.30
2006,06,30,06,04,11.30
2006,06,30,06,05,11.40
2006,06,30,06,06,11.40
2006,06,30,06,07,11.50
2006,06,30,06,08,11.50
2006,06,30,06,09,11.60
2006,06,30,06,10,11.70
2006,06,30,06,11,11.70
2006,06,30,06,12,11.80
2006,06,30,06,13,11.80
2006,06,30,06,14,11.90
2006,06,30,06,15,12.00
2006,06,30,06,16,12.00
2006,06,30,06,17,12.10
2006,06,30,06,18,12.20
2006,06,30,06,19,12.20
2006,06,30,06,20,12.30
2006,06,30,06,21,12.30
2006,06,30,06,22,12.30
2006,06,30,06,23,12.30
2006,06,30,06,24,12.40
2006,06,30,06,25,12.50
2006,06,30,06,26,12.60
2006,06,30,06,27,12.70
2006,06,30,06,28,12.80
2006,06,30,06,29,12.90
2006,06,30,06,30,13.00
2006,06,30,06,31,13.10
2006,06,30,06,32,13.20
2006,06,30,06,33,13.30
2006,06,30,06,34,13.40
2006,06,30,06,35,13.40
2006,06,30,06,36,13.50
2006,06,30,06,37,13.60
2006,06,30,06,38,13.80
2006,06,30,06,39,13.80
2006,06,30,06,40,13.90
2006,06,30,06,41,13.90
2006,06,30,06,42,14.00
2006,06,30,06,43,14.00
2006,06,30,06,44,14.10
2006,06,30,06,45,14.10
2006,06,30,06,46,14.20
2006,06,30,06,47,14.30
2006,06,30,06,48,14.40
2006,06,30,06,49,14.60
2006,06,30,06,50,14.70
2006,06,30,06,51,14.80
2006,06,30,06,52,14.90
2006,06,30,06,53,15.00
2006,06,30,06,54,15.00
2006,06,30,06,55,15.00
2006,06,30,06,56,15.00
2006,06,30,06,57,15.00
2006,06,30,06,58,15.00
2006,06,30,06,59,15.00
2006,06,30,07,00,15.00
2006,06,30,07,01,15.20
2006,06,30,07,02,15.30
2006,06,30,07,03,15.30
2006,06,30,07,04,15.40
2006,06,30,07,05,15.50
2006,06,30,07,06,15.60
2006,06,30,07,07,15.60
2006,06,30,07,08,15.70
2006,06,30,07,09,15.70
2006,06,30,07,10,15.70
2006,06,30,07,11,15.80
2006,06,30,07,12,15.80
2006,06,30,07,13,15.80
2006,06,30,07,14,15.90
2006,06,30,07,15,16.00
2006,06,30,07,16,16.00
2006,06,30,07,17,16.10
2006,06,30,07,18,16.10
2006,06,30,07,19,16.20
2006,06,30,07,20,16.30
2006,06,30,07,21,16.30
2006,06,30,07,22,16.40
2006,06,30,07,23,16.50
2006,06,30,07,24,16.60
2006,06,30,07,25,16.70
2006,06,30,07,26,16.80
2006,06,30,07,27,16.80
2006,06,30,07,28,16.90
2006,06,30,07,29,16.90
2006,06,30,07,30,16.90
2006,06,30,07,31,16.90
2006,06,30,07,32,17.00
2006,06,30,07,33,17.10
2006,06,30,07,34,17.10
2006,06,30,07,35,17.20
2006,06,30,07,36,17.30
2006,06,30,07,37,17.50
2006,06,30,07,38,17.60
2006,06,30,07,39,17.80
2006,06,30,07,40,17.90
2006,06,30,07,41,17.90
2006,06,30,07,42,18.00
2006,06,30,07,43,18.00
2006,06,30,07,44,17.90
2006,06,30,07,45,17.80
2006,06,30,07,46,17.80
2006,06,30,07,47,17.80
2006,06,30,07,48,17.80
2006,06,30,07,49,17.80
2006,06,30,07,50,17.90
2006,06,30,07,51,18.00
2006,06,30,07,52,18.00
2006,06,30,07,53,18.10
2006,06,30,07,54,18.10
2006,06,30,07,55,18.10
2006,06,30,07,56,18.20
2006,06,30,07,57,18.20
2006,06,30,07,58,18.20
2006,06,30,07,59,18.20
2006,06,30,08,00,18.20
2006,06,30,08,01,18.30
2006,06,30,08,02,18.30
2006,06,30,08,03,18.20
2006,06,30,08,04,18.20
2006,06,30,08,05,18.20
2006,06,30,08,06,18.10
2006,06,30,08,07,18.10
2006,06,30,08,08,18.20
2006,06,30,08,09,18.20
2006,06,30,08,10,18.20
2006,06,30,08,11,18.20
2006,06,30,08,12,18.20
2006,06,30,08,13,18.30
2006,06,30,08,14,18.40
2006,06,30,08,15,18.50
2006,06,30,08,16,18.50
2006,06,30,08,17,18.60
2006,06,30,08,18,18.70
2006,06,30,08,19,18.80
2006,06,30,08,20,18.80
2006,06,30,08,21,18.90
2006,06,30,08,22,19.00
2006,06,30,08,23,19.00
2006,06,30,08,24,19.00
2006,06,30,08,25,19.10
2006,06,30,08,26,19.10
2006,06,30,08,27,19.10
2006,06,30,08,28,19.10
2006,06,30,08,29,19.20
2006,06,30,08,30,19.20
2006,06,30,08,31,19.30
2006,06,30,08,32,19.40
2006,06,30,08,33,19.50
2006,06,30,08,34,19.60
2006,06,30,08,35,19.60
2006,06,30,08,36,19.60
2006,06,30,08,37,19.50
2006,06,30,08,38,19.40
2006,06,30,08,39,19.40
2006,06,30,08,40,19.30
2006,06,30,08,41,19.30
2006,06,30,08,42,19.30
2006,06,30,08,43,19.30
2006,06,30,08,44,19.30
2006,06,30,08,45,19.30
2006,06,30,08,46,19.20
2006,06,30,08,47,19.10
2006,06,30,08,48,19.10
2006,06,30,08,49,19.00
2006,06,30,08,50,18.90
2006,06,30,08,51,18.80
2006,06,30,08,52,18.70
2006,06,30,08,53,18.60
2006,06,30,08,54,18.50
2006,06,30,08,55,18.50
2006,06,30,08,56,18.50
2006,06,30,08,57,18.40
2006,06,30,08,58,18.40
2006,06,30,08,59,18.30
2006,06,30,09,00,18.30
2006,06,30,09,01,18.30
2006,06,30,09,02,18.30
2006,06,30,09,03,18.30
2006,06,30,09,04,18.20
2006,06,30,09,05,18.20
2006,06,30,09,06,18.30
2006,06,30,09,07,18.30
2006,06,30,09,08,18.30
2006,06,30,09,09,18.30
2006,06,30,09,10,18.30
2006,06,30,09,11,18.30
2006,06,30,09,12,18.30
2006,06,30,09,13,18.30
2006,06,30,09,14,18.30
2006,06,30,09,15,18.30
2006,06,30,09,16,18.30
2006,06,30,09,17,18.30
2006,06,30,09,18,18.30
2006,06,30,09,19,18.30
2006,06,30,09,20,18.40
2006,06,30,09,21,18.40
2006,06,30,09,22,18.30
2006,06,30,09,23,18.30
2006,06,30,09,24,18.30
2006,06,30,09,25,18.40
2006,06,30,09,26,18.40
2006,06,30,09,27,18.50
2006,06,30,09,28,18.50
2006,06,30,09,29,18.50
2006,06,30,09,30,18.60
2006,06,30,09,31,18.70
2006,06,30,09,32,18.70
2006,06,30,09,33,18.70
2006,06,30,09,34,18.80
2006,06,30,09,35,19.00
2006,06,30,09,36,19.20
2006,06,30,09,37,19.20
2006,06,30,09,38,19.30
2006,06,30,09,39,19.50
2006,06,30,09,40,19.60
2006,06,30,09,41,19.70
2006,06,30,09,42,19.90
2006,06,30,09,43,20.00
2006,06,30,09,44,20.20
2006,06,30,09,45,20.20
2006,06,30,09,46,20.20
2006,06,30,09,47,20.20
2006,06,30,09,48,20.10
2006,06,30,09,49,20.00
2006,06,30,09,50,19.90
2006,06,30,09,51,19.90
2006,06,30,09,52,19.90
2006,06,30,09,53,19.90
2006,06,30,09,54,20.00
2006,06,30,09,55,20.00
2006,06,30,09,56,20.10
2006,06,30,09,57,20.10
2006,06,30,09,58,20.10
2006,06,30,09,59,20.10
2006,06,30,10,00,20.20
2006,06,30,10,01,20.20
2006,06,30,10,02,20.20
2006,06,30,10,03,20.30
2006,06,30,10,04,20.40
2006,06,30,10,05,20.50
2006,06,30,10,06,20.50
2006,06,30,10,07,20.50
2006,06,30,10,08,20.40
2006,06,30,10,09,20.40
2006,06,30,10,10,20.40
2006,06,30,10,11,20.40
2006,06,30,10,12,20.50
2006,06,30,10,13,20.60
2006,06,30,10,14,20.70
2006,06,30,10,15,20.80
2006,06,30,10,16,20.80
2006,06,30,10,17,20.70
2006,06,30,10,18,20.70
2006,06,30,10,19,20.60
2006,06,30,10,20,20.60
2006,06,30,10,21,20.70
2006,06,30,10,22,20.70
2006,06,30,10,23,20.70
2006,06,30,10,24,20.60
2006,06,30,10,25,20.60
2006,06,30,10,26,20.60
2006,06,30,10,27,20.60
2006,06,30,10,28,20.50
2006,06,30,10,29,20.50
2006,06,30,10,30,20.50
2006,06,30,10,31,20.40
2006,06,30,10,32,20.30
2006,06,30,10,33,20.20
2006,06,30,10,34,20.10
2006,06,30,10,35,20.00
2006,06,30,10,36,19.80
2006,06,30,10,37,19.80
2006,06,30,10,38,19.70
2006,06,30,10,39,19.70
2006,06,30,10,40,19.70
2006,06,30,10,41,19.60
2006,06,30,10,42,19.60
2006,06,30,10,43,19.60
2006,06,30,10,44,19.60
2006,06,30,10,45,19.60
2006,06,30,10,46,19.60
2006,06,30,10,47,19.60
2006,06,30,10,48,19.60
2006,06,30,10,49,19.60
2006,06,30,10,50,19.50
2006,06,30,10,51,19.40
2006,06,30,10,52,19.40
2006,06,30,10,53,19.50
2006,06,30,10,54,19.50
2006,06,30,10,55,19.40
2006,06,30,10,56,19.30
2006,06,30,10,57,19.30
2006,06,30,10,58,19.30
2006,06,30,10,59,19.20
2006,06,30,11,00,19.20
2006,06,30,11,01,19.20
2006,06,30,11,02,19.30
2006,06,30,11,03,19.30
2006,06,30,11,04,19.30
2006,06,30,11,05,19.30
2006,06,30,11,06,19.30
2006,06,30,11,07,19.40
2006,06,30,11,08,19.60
2006,06,30,11,09,19.70
2006,06,30,11,10,19.80
2006,06,30,11,11,19.80
2006,06,30,11,12,19.70
2006,06,30,11,13,19.60
2006,06,30,11,14,19.60
2006,06,30,11,15,19.50
2006,06,30,11,16,19.40
2006,06,30,11,17,19.30
2006,06,30,11,18,19.30
2006,06,30,11,19,19.40
2006,06,30,11,20,19.40
2006,06,30,11,21,19.50
2006,06,30,11,22,19.70
2006,06,30,11,23,19.80
2006,06,30,11,24,19.90
2006,06,30,11,25,19.90
2006,06,30,11,26,19.80
2006,06,30,11,27,19.70
2006,06,30,11,28,19.60
2006,06,30,11,29,19.60
2006,06,30,11,30,19.60
2006,06,30,11,31,19.70
2006,06,30,11,32,19.60
2006,06,30,11,33,19.50
2006,06,30,11,34,19.50
2006,06,30,11,35,19.60
2006,06,30,11,36,19.60
2006,06,30,11,37,19.50
2006,06,30,11,38,19.40
2006,06,30,11,39,19.30
2006,06,30,11,40,19.30
2006,06,30,11,41,19.30
2006,06,30,11,42,19.30
2006,06,30,11,43,19.20
2006,06,30,11,44,19.20
2006,06,30,11,45,19.20
2006,06,30,11,46,19.30
2006,06,30,11,47,19.30
2006,06,30,11,48,19.30
2006,06,30,11,49,19.40
2006,06,30,11,50,19.50
2006,06,30,11,51,19.60
2006,06,30,11,52,19.80
2006,06,30,11,53,19.90
2006,06,30,11,54,19.90
2006,06,30,11,55,19.80
2006,06,30,11,56,19.70
2006,06,30,11,57,19.70
2006,06,30,11,58,19.70
2006,06,30,11,59,19.80
2006,06,30,12,00,19.90
2006,06,30,12,01,20.10
2006,06,30,12,02,20.10
2006,06,30,12,03,20.10
2006,06,30,12,04,20.10
2006,06,30,12,05,20.10
2006,06,30,12,06,20.10
2006,06,30,12,07,20.20
2006,06,30,12,08,20.30
2006,06,30,12,09,20.50
2006,06,30,12,10,20.70
2006,06,30,12,11,20.80
2006,06,30,12,12,20.90
2006,06,30,12,13,21.00
2006,06,30,12,14,21.10
2006,06,30,12,15,21.00
2006,06,30,12,16,20.80
2006,06,30,12,17,20.60
2006,06,30,12,18,20.50
2006,06,30,12,19,20.40
2006,06,30,12,20,20.40
2006,06,30,12,21,20.50
2006,06,30,12,22,20.50
2006,06,30,12,23,20.60
2006,06,30,12,24,20.60
2006,06,30,12,25,20.70
2006,06,30,12,26,20.90
2006,06,30,12,27,21.00
2006,06,30,12,28,21.00
2006,06,30,12,29,20.90
2006,06,30,12,30,20.80
2006,06,30,12,31,20.80
2006,06,30,12,32,20.90
2006,06,30,12,33,21.00
2006,06,30,12,34,21.10
2006,06,30,12,35,21.20
2006,06,30,12,36,21.10
2006,06,30,12,37,20.90
2006,06,30,12,38,20.90
2006,06,30,12,39,20.80
2006,06,30,12,40,20.80
2006,06,30,12,41,20.80
2006,06,30,12,42,20.80
2006,06,30,12,43,20.80
2006,06,30,12,44,20.80
2006,06,30,12,45,20.80
2006,06,30,12,46,20.90
2006,06,30,12,47,21.10
2006,06,30,12,48,21.20
2006,06,30,12,49,21.30
2006,06,30,12,50,21.40
2006,06,30,12,51,21.50
2006,06,30,12,52,21.50
2006,06,30,12,53,21.40
2006,06,30,12,54,21.30
2006,06,30,12,55,21.50
2006,06,30,12,56,21.60
2006,06,30,12,57,21.60
2006,06,30,12,58,21.60
2006,06,30,12,59,21.70
2006,06,30,13,00,21.80
2006,06,30,13,01,21.90
2006,06,30,13,02,21.90
2006,06,30,13,03,22.10
2006,06,30,13,04,22.20
2006,06,30,13,05,22.30
2006,06,30,13,06,22.40
2006,06,30,13,07,22.50
2006,06,30,13,08,22.40
2006,06,30,13,09,22.30
2006,06,30,13,10,22.20
2006,06,30,13,11,22.10
2006,06,30,13,12,22.00
2006,06,30,13,13,21.90
2006,06,30,13,14,21.90
2006,06,30,13,15,21.90
2006,06,30,13,16,21.90
2006,06,30,13,17,21.90
2006,06,30,13,18,22.00
2006,06,30,13,19,22.20
2006,06,30,13,20,22.30
2006,06,30,13,21,22.40
2006,06,30,13,22,22.50
2006,06,30,13,23,22.50
2006,06,30,13,24,22.50
2006,06,30,13,25,22.50
2006,06,30,13,26,22.60
2006,06,30,13,27,22.70
2006,06,30,13,28,22.80
2006,06,30,13,29,22.80
2006,06,30,13,30,23.00
2006,06,30,13,31,23.00
2006,06,30,13,32,23.00
2006,06,30,13,33,22.90
2006,06,30,13,34,22.90
2006,06,30,13,35,22.90
2006,06,30,13,36,22.90
2006,06,30,13,37,22.90
2006,06,30,13,38,23.10
2006,06,30,13,39,23.20
2006,06,30,13,40,23.40
2006,06,30,13,41,23.60
2006,06,30,13,42,23.60
2006,06,30,13,43,23.60
2006,06,30,13,44,23.70
2006,06,30,13,45,23.70
2006,06,30,13,46,23.70
2006,06,30,13,47,23.70
2006,06,30,13,48,23.70
2006,06,30,13,49,23.80
2006,06,30,13,50,23.80
2006,06,30,13,51,23.90
2006,06,30,13,52,24.00
2006,06,30,13,53,23.90
2006,06,30,13,54,23.90
2006,06,30,13,55,23.80
2006,06,30,13,56,23.80
2006,06,30,13,57,23.70
2006,06,30,13,58,23.80
2006,06,30,13,59,23.90
2006,06,30,14,00,23.90
2006,06,30,14,01,24.00
2006,06,30,14,02,24.00
2006,06,30,14,03,24.10
2006,06,30,14,04,24.20
2006,06,30,14,05,24.20
2006,06,30,14,06,24.20
2006,06,30,14,07,24.20
2006,06,30,14,08,24.20
2006,06,30,14,09,24.20
2006,06,30,14,10,24.10
2006,06,30,14,11,24.10
2006,06,30,14,12,24.10
2006,06,30,14,13,24.10
2006,06,30,14,14,24.10
2006,06,30,14,15,24.20
2006,06,30,14,16,24.10
2006,06,30,14,17,24.10
2006,06,30,14,18,24.10
2006,06,30,14,19,24.10
2006,06,30,14,20,24.10
2006,06,30,14,21,24.20
2006,06,30,14,22,24.30
2006,06,30,14,23,24.40
2006,06,30,14,24,24.50
2006,06,30,14,25,24.60
2006,06,30,14,26,24.60
2006,06,30,14,27,24.50
2006,06,30,14,28,24.60
2006,06,30,14,29,24.60
2006,06,30,14,30,24.60
2006,06,30,14,31,24.60
2006,06,30,14,32,24.70
2006,06,30,14,33,24.70
2006,06,30,14,34,24.80
2006,06,30,14,35,24.80
2006,06,30,14,36,24.90
2006,06,30,14,37,25.00
2006,06,30,14,38,24.90
2006,06,30,14,39,24.90
2006,06,30,14,40,24.80
2006,06,30,14,41,24.70
2006,06,30,14,42,24.70
2006,06,30,14,43,24.70
2006,06,30,14,44,24.70
2006,06,30,14,45,24.60
2006,06,30,14,46,24.60
2006,06,30,14,47,24.70
2006,06,30,14,48,24.80
2006,06,30,14,49,24.80
2006,06,30,14,50,24.80
2006,06,30,14,51,24.90
2006,06,30,14,52,25.00
2006,06,30,14,53,24.90
2006,06,30,14,54,24.90
2006,06,30,14,55,24.90
2006,06,30,14,56,24.90
2006,06,30,14,57,25.00
2006,06,30,14,58,24.90
2006,06,30,14,59,24.90
2006,06,30,15,00,24.80
2006,06,30,15,01,24.80
2006,06,30,15,02,24.80
2006,06,30,15,03,24.80
2006,06,30,15,04,24.80
2006,06,30,15,05,24.80
2006,06,30,15,06,24.80
2006,06,30,15,07,24.80
2006,06,30,15,08,24.80
2006,06,30,15,09,24.70
2006,06,30,15,10,24.70
2006,06,30,15,11,24.90
2006,06,30,15,12,24.90
2006,06,30,15,13,24.80
2006,06,30,15,14,24.80
2006,06,30,15,15,24.90
2006,06,30,15,16,24.90
2006,06,30,15,17,24.80
2006,06,30,15,18,24.80
2006,06,30,15,19,24.90
2006,06,30,15,20,24.90
2006,06,30,15,21,24.80
2006,06,30,15,22,24.80
2006,06,30,15,23,24.90
2006,06,30,15,24,25.00
2006,06,30,15,25,25.10
2006,06,30,15,26,25.20
2006,06,30,15,27,25.20
2006,06,30,15,28,25.20
2006,06,30,15,29,25.10
2006,06,30,15,30,24.90
2006,06,30,15,31,24.80
2006,06,30,15,32,24.80
2006,06,30,15,33,24.80
2006,06,30,15,34,24.80
2006,06,30,15,35,24.80
2006,06,30,15,36,24.90
2006,06,30,15,37,24.90
2006,06,30,15,38,24.90
2006,06,30,15,39,24.80
2006,06,30,15,40,24.80
2006,06,30,15,41,24.90
2006,06,30,15,42,24.70
2006,06,30,15,43,24.60
2006,06,30,15,44,24.50
2006,06,30,15,45,24.40
2006,06,30,15,46,24.40
2006,06,30,15,47,24.50
2006,06,30,15,48,24.50
2006,06,30,15,49,24.60
2006,06,30,15,50,24.70
2006,06,30,15,51,24.90
2006,06,30,15,52,25.00
2006,06,30,15,53,25.20
2006,06,30,15,54,25.50
2006,06,30,15,55,25.80
2006,06,30,15,56,26.00
2006,06,30,15,57,26.20
2006,06,30,15,58,26.40
2006,06,30,15,59,26.60
2006,06,30,16,00,26.70
2006,06,30,16,01,26.80
2006,06,30,16,02,26.80
2006,06,30,16,03,26.80
2006,06,30,16,04,26.80
2006,06,30,16,05,26.70
2006,06,30,16,06,26.70
2006,06,30,16,07,26.60
2006,06,30,16,08,26.60
2006,06,30,16,09,26.60
2006,06,30,16,10,26.50
2006,06,30,16,11,26.40
2006,06,30,16,12,26.30
2006,06,30,16,13,26.30
2006,06,30,16,14,26.40
2006,06,30,16,15,26.40
2006,06,30,16,16,26.50
2006,06,30,16,17,26.40
2006,06,30,16,18,26.30
2006,06,30,16,19,26.20
2006,06,30,16,20,26.20
2006,06,30,16,21,26.20
2006,06,30,16,22,26.20
2006,06,30,16,23,26.20
2006,06,30,16,24,26.20
2006,06,30,16,25,26.30
2006,06,30,16,26,26.40
2006,06,30,16,27,26.50
2006,06,30,16,28,26.60
2006,06,30,16,29,26.70
2006,06,30,16,30,26.80
2006,06,30,16,31,26.80
2006,06,30,16,32,26.70
2006,06,30,16,33,26.70
2006,06,30,16,34,26.70
2006,06,30,16,35,26.70
2006,06,30,16,36,26.50
2006,06,30,16,37,26.50
2006,06,30,16,38,26.60
2006,06,30,16,39,26.60
2006,06,30,16,40,26.60
2006,06,30,16,41,26.60
2006,06,30,16,42,26.60
2006,06,30,16,43,26.60
2006,06,30,16,44,26.60
2006,06,30,16,45,26.50
2006,06,30,16,46,26.40
2006,06,30,16,47,26.40
2006,06,30,16,48,26.50
2006,06,30,16,49,26.40
2006,06,30,16,50,26.50
2006,06,30,16,51,26.60
2006,06,30,16,52,26.60
2006,06,30,16,53,26.60
2006,06,30,16,54,26.70
2006,06,30,16,55,26.70
2006,06,30,16,56,26.70
2006,06,30,16,57,26.70
2006,06,30,16,58,26.70
2006,06,30,16,59,26.70
2006,06,30,17,00,26.70
2006,06,30,17,01,26.80
2006,06,30,17,02,26.80
2006,06,30,17,03,26.70
2006,06,30,17,04,26.70
2006,06,30,17,05,26.70
2006,06,30,17,06,26.70
2006,06,30,17,07,26.70
2006,06,30,17,08,26.50
2006,06,30,17,09,26.40
2006,06,30,17,10,26.30
2006,06,30,17,11,26.30
2006,06,30,17,12,26.30
2006,06,30,17,13,26.40
2006,06,30,17,14,26.50
2006,06,30,17,15,26.60
2006,06,30,17,16,26.70
2006,06,30,17,17,26.80
2006,06,30,17,18,26.80
2006,06,30,17,19,26.90